Skip Page Navigation
NASA JPL Caltech
NASA Logo - Jet Propulsion Laboratory + View the NASA Portal
+ Near-Earth Object (NEO) Program
Search JPL
JPL Home Earth Solar System Stars & Galaxies Technology
JPL Solar System Dynamics
BODIES ORBITS EPHEMERIDES TOOLS PHYSICAL DATA DISCOVERY FAQ SITE MAP
JPL Small-Body Database Browser
Search: [ help ]  
8576 (1996 VN8)
Classification: Main-belt Asteroid          SPK-ID: 2008576
Ephemeris | Orbit Diagram | Orbital Elements | Physical Parameters | Discovery Circumstances | Close-Approach Data ]

[ show orbit diagram ]
Orbital Elements at Epoch 2456800.5 (2014-May-23.0) TDB
Reference: JPL 5 (heliocentric ecliptic J2000)
 Element Value Uncertainty (1-sigma)   Units 
e .2069305223035505 7.7573e-08  
a 2.379668842187539 1.777e-08 AU
q 1.887242725764186 1.8136e-07 AU
i 3.036714597001755 7.7267e-06 deg
node 43.34029973472482 0.0001065 deg
peri 345.9096388614051 0.00010737 deg
M 288.6626660509004 1.6366e-05 deg
tp 2457066.197572868363
(2015-Feb-12.69757287)
6.265e-05 JED
period 1340.828440559038
3.67
1.5019e-05
4.112e-08
d
yr
n .2684907249207091 3.0074e-09 deg/d
Q 2.872094958610892 2.1447e-08 AU
  Orbit Determination Parameters
   # obs. used (total)      824  
   data-arc span      14137 days (38.70 yr)  
   first obs. used      1974-11-12  
   last obs. used      2013-07-27  
   planetary ephem.      DE431  
   SB-pert. ephem.      SB431-BIG16  
   condition code      0  
   fit RMS      .56961  
   data source      ORB  
   producer      Otto Matic  
   solution date      2013-Aug-26 19:17:28  

Additional Information
 Earth MOID = .891256 AU 
 T_jup = 3.508 
[ show covariance matrix ]

Ephemeris | Orbit Diagram | Orbital Elements | Physical Parameters | Discovery Circumstances | Close-Approach Data ]

Physical Parameter Table
Parameter Symbol Value Units Sigma Reference Notes
absolute magnitude H 14.5 mag n/a MPO267742  

8576 (1996 VN8)          Discovered 1996-Nov-07 by Ueda, S., Kaneda, H. at Kushiro (399)
Reference: 19980313/Numbers.arcLast Updated: 2004-04-19

[ show close-approach data ]
Alternate Designations
 1996 VN8 = 1974 VF = 1992 PN3 
Ephemeris | Orbit Diagram | Orbital Elements | Physical Parameters | Discovery Circumstances | Close-Approach Data ]
ABOUT SSD CREDITS/AWARDS PRIVACY/COPYRIGHT GLOSSARY LINKS
FirstGov 2014-Apr-24 13:49 UT
(server date/time)  
NASA Home Page
Site Manager:   Donald K. Yeomans
Webmaster  Alan B. Chamberlin